Wind_Speed
59 57 53 52 52 51 50 50 49 48 47 46 44 40 41 41 37 34 34 32 27 27 24 19 18 18 16 17 19 24 24 17 16 21 24 25 29 33 18 23 22 26 28 21 9
63 62 60 60 64 58 56 54 53 52 49 49 47 44 41 45 41 37 39 35 30 32 26 25 21 19 20 18 19 23 23 15 20 31 24 24 35 33 14 22 22 29 26 17 26
63 62 63 65 61 60 64 59 55 57 54 51 47 46 44 44 43 41 43 37 34 33 31 29 24 21 19 18 19 24 20 22 29 34 29 30 37 34 16 15 20 27 28 21 21
67 66 64 65 64 66 63 66 62 59 59 55 54 51 48 53 49 49 44 41 37 35 33 36 28 25 22 21 20 23 22 26 31 37 32 35 33 32 22 17 20 26 30 22 18
72 70 67 66 65 68 68 64 62 63 60 59 56 55 52 57 54 51 46 44 41 41 36 35 35 29 26 24 23 22 24 28 31 37 36 35 31 27 20 22 21 28 32 23 15
75 75 73 71 69 67 65 64 65 65 62 63 64 64 59 62 54 51 50 45 44 42 40 37 36 36 31 28 28 27 25 27 33 36 34 32 27 30 23 23 20 29 30 28 20
74 74 77 78 74 70 68 66 64 63 65 65 65 63 63 57 58 53 55 53 45 42 42 41 41 45 33 33 30 32 30 26 28 29 32 37 34 26 23 26 23 27 30 28 28
77 76 73 74 76 75 71 72 67 67 67 67 67 67 63 61 60 59 57 54 49 45 44 44 45 44 40 40 37 32 31 28 20 30 30 36 33 22 24 30 28 29 30 30 34
81 81 80 75 75 77 75 57 67 72 72 72 70 68 62 62 63 60 63 58 53 49 46 46 48 50 45 43 42 29 29 30 26 29 29 36 33 21 31 32 30 29 32 37 34
87 84 83 81 77 75 74 78 69 58 72 63 68 74 67 65 59 57 57 62 58 53 52 50 54 54 52 50 37 28 39 32 30 25 30 32 39 26 32 34 33 30 34 36 35
89 87 87 86 83 78 73 72 73 74 82 63 63 59 67 70 64 59 61 61 58 57 60 53 53 56 48 44 38 40 41 37 30 28 32 31 35 33 32 36 36 32 33 36 38
88 89 88 87 87 84 78 74 73 68 82 73 74 67 63 66 62 58 58 59 58 56 54 54 56 50 45 40 43 44 44 41 31 27 34 35 34 37 29 37 37 37 36 39 39
92 90 88 87 87 88 83 76 74 75 74 86 77 72 60 63 62 58 59 56 58 58 58 57 49 47 46 47 47 49 46 41 33 30 32 37 42 43 34 34 40 36 40 44 40
88 90 91 88 88 88 86 80 78 74 83 78 80 75 70 61 62 62 64 63 61 60 56 59 54 55 52 50 49 49 42 39 37 37 44 38 46 45 42 40 37 39 37 47 47
86 86 88 89 88 87 84 85 83 83 88 85 79 75 76 72 61 56 62 67 60 58 59 55 57 52 48 45 48 47 39 46 41 39 44 46 51 46 45 46 39 40 39 50 52
71 84 87 87 85 86 86 87 89 90 97 83 80 74 77 75 68 64 59 62 56 60 58 57 60 56 49 43 45 44 47 44 42 42 51 47 49 43 44 42 36 44 48 52 55
42 55 75 84 80 85 90 93 95 102 96 78 79 78 78 78 70 68 63 63 62 63 59 63 58 61 55 52 51 48 35 38 45 45 48 46 47 43 40 36 32 38 47 52 54
40 44 49 65 78 85 95 99 106 101 99 89 87 84 84 77 71 61 56 62 62 60 60 59 60 57 62 50 46 52 50 54 54 48 46 44 54 49 44 38 41 39 46 52 51
39 42 48 40 58 84 93 100 108 100 96 91 88 94 90 88 73 61 56 55 59 49 57 57 54 49 47 44 49 50 60 54 55 51 52 55 56 51 41 41 37 36 44 49 47
39 41 40 41 48 58 78 98 103 99 96 94 95 94 93 91 88 85 69 58 60 46 43 45 45 46 45 51 54 51 48 55 59 59 56 52 50 51 45 40 36 40 36 36 33
45 48 34 39 48 61 71 84 97 96 93 98 95 94 95 90 93 82 76 65 56 49 43 39 44 38 45 48 47 51 59 59 56 54 55 50 46 43 38 38 39 41 36 35 33
51 55 48 50 54 62 69 58 79 93 97 98 96 91 93 91 93 88 81 64 70 56 56 47 45 37 38 43 47 51 54 57 56 56 57 55 49 51 45 36 38 38 36 35 37
61 60 62 64 66 67 62 61 55 74 94 98 97 85 80 80 94 92 85 75 52 64 65 53 56 52 46 44 52 54 57 57 55 54 54 57 52 44 46 37 39 39 34 33 33
66 69 68 78 72 67 61 59 58 52 78 88 93 95 77 83 74 82 86 77 76 75 69 59 58 62 57 46 51 55 56 61 56 58 56 56 51 43 41 41 40 37 36 36 38
53 62 56 65 69 67 60 57 55 54 51 76 85 90 91 71 81 73 59 59 72 77 76 71 71 66 53 51 46 49 56 59 60 56 57 48 47 41 40 40 39 38 42 45 46
58 66 57 57 58 59 56 57 55 46 47 47 82 91 90 96 89 84 58 46 66 70 68 65 73 62 57 51 45 49 53 59 63 58 51 48 50 41 39 36 38 42 47 48 45
57 59 52 55 54 57 51 48 40 47 43 37 50 83 96 90 96 89 86 77 67 62 65 70 75 71 61 63 56 57 48 57 57 54 49 48 39 36 40 37 38 45 46 46 40
Wind_Direction
248 248 245 250 250 249 251 252 254 253 252 252 253 253 254 263 263 264 269 274 275 283 291 297 297 302 291 273 262 258 251 235 216 215 195 230 258 270 259 248 259 267 278 304 211
246 246 247 248 250 252 252 250 250 252 251 251 251 251 254 258 262 262 264 268 271 277 280 286 292 299 294 283 266 261 255 226 212 214 200 238 248 260 254 241 261 277 288 284 253
246 246 245 245 244 246 251 255 252 254 253 252 251 251 252 253 255 259 261 264 267 274 272 276 286 288 295 287 269 260 257 222 213 221 205 217 245 250 262 237 259 275 275 265 236
250 249 246 246 245 245 246 248 251 249 253 252 251 251 249 247 251 253 260 265 265 267 268 271 274 282 282 292 282 263 254 230 226 235 244 230 246 256 252 251 248 256 266 264 256
250 249 248 246 246 244 245 245 247 250 251 251 252 253 248 253 256 255 256 259 261 264 262 269 267 275 273 286 282 274 257 239 226 236 246 252 255 267 259 249 246 253 259 262 249
248 248 248 246 246 245 245 246 247 246 247 249 251 247 253 260 260 257 253 252 256 260 262 262 266 266 270 276 281 273 257 254 245 244 248 255 254 253 255 252 235 245 252 261 250
247 247 247 248 245 246 246 246 247 248 248 246 249 251 253 258 259 257 257 257 257 262 262 259 262 267 266 271 272 278 273 260 254 254 247 255 251 251 252 247 236 235 247 248 251
245 246 246 246 245 245 245 248 250 250 249 250 248 248 252 254 253 257 260 261 266 258 255 254 258 263 263 266 266 276 269 270 259 252 248 252 250 244 247 244 234 224 238 246 242
248 245 245 245 245 244 244 242 254 251 251 251 250 250 254 251 248 248 250 254 256 261 254 254 255 257 263 261 262 271 269 267 249 256 250 249 253 240 240 244 237 233 228 236 240
248 248 246 247 246 245 245 242 243 247 251 246 249 250 252 253 251 249 250 253 255 257 255 249 253 259 258 260 260 276 274 271 263 247 250 250 255 231 244 245 249 236 233 240 239
249 248 247 247 248 246 245 246 241 243 244 249 248 253 257 257 257 250 247 250 254 252 251 256 256 259 263 262 264 265 270 274 266 247 236 243 250 247 245 249 249 245 245 244 243
248 248 246 245 245 245 244 244 246 244 246 246 243 250 248 250 254 249 244 250 251 254 257 255 256 261 267 259 257 259 261 264 270 248 249 245 253 255 242 252 248 250 251 249 248
248 248 247 245 243 244 242 242 243 241 251 244 243 247 244 246 251 251 250 247 249 247 249 253 257 256 258 255 253 254 256 263 275 249 242 248 251 253 243 241 253 246 258 258 253
247 247 246 246 244 243 242 240 238 238 244 245 242 241 245 242 241 248 249 248 243 249 247 250 249 248 252 251 248 251 254 266 267 256 240 243 251 249 253 246 248 259 253 256 256
250 246 244 244 244 243 241 239 237 234 239 242 236 238 239 244 248 248 253 254 251 250 247 251 256 254 258 258 253 253 258 261 265 263 249 236 247 249 246 250 246 245 251 259 262
249 246 245 242 240 242 241 239 236 233 236 234 234 239 239 242 244 248 248 249 250 245 243 245 250 248 246 250 251 249 253 256 260 258 247 246 246 252 255 259 256 251 249 253 257
262 249 242 241 239 235 236 234 233 233 233 228 229 231 235 236 241 244 245 243 250 245 241 240 243 248 248 243 244 246 244 249 255 251 253 252 254 265 261 260 258 256 255 254 256
262 262 249 238 235 230 230 231 231 232 236 234 229 229 231 236 237 242 241 242 245 252 244 242 242 245 244 243 244 247 239 246 249 260 269 267 261 266 264 261 254 248 248 253 256
263 258 256 249 233 226 227 228 230 231 234 235 235 231 231 233 237 239 241 247 245 245 246 242 244 240 240 246 248 247 244 246 257 259 262 260 259 263 265 262 258 253 249 248 254
264 260 255 252 247 242 238 231 230 229 230 231 231 236 232 233 235 239 239 241 234 230 236 240 238 240 243 238 239 241 245 239 243 252 254 259 263 261 260 265 265 257 250 255 256
263 263 253 254 249 247 247 238 230 228 227 229 230 230 235 232 236 238 241 237 236 231 249 245 243 243 242 241 242 239 237 235 242 248 254 254 259 259 255 260 265 249 247 249 250
267 265 258 249 244 251 250 250 236 226 225 224 227 231 230 234 233 237 237 233 239 248 237 239 248 245 255 255 246 239 240 247 247 248 251 254 258 258 263 252 250 255 254 257 255
272 266 258 257 244 251 256 249 245 235 225 222 219 221 228 232 234 239 242 233 233 235 237 243 243 245 247 247 239 241 242 237 244 243 242 247 252 250 258 260 251 255 257 252 254
271 261 253 252 249 246 251 248 242 242 234 227 222 218 217 222 225 236 238 237 238 242 241 245 249 251 248 262 249 245 246 243 239 242 243 241 246 254 246 253 257 258 257 256 254
249 250 249 247 245 235 239 239 239 237 241 230 213 217 216 214 224 228 234 236 238 239 241 244 250 254 254 254 247 246 246 246 241 247 241 248 252 255 254 250 250 250 252 254 261
253 240 245 249 245 237 237 233 234 233 237 241 227 212 211 212 217 222 214 230 234 232 234 241 245 246 244 239 251 249 246 245 245 246 246 244 244 250 251 248 254 254 254 260 266
243 238 238 245 240 228 224 230 235 233 238 247 234 223 220 215 216 215 221 231 221 237 241 245 250 247 242 244 250 249 252 249 245 243 247 248 248 250 249 257 257 263 263 267 270
Height
5767 5771 5775 5779 5783 5785 5788 5791 5794 5796 5800 5802 5805 5807 5811 5815 5816 5819 5820 5823 5823 5824 5824 5823 5824 5823 5823 5822 5822 5822 5822 5826 5829 5831 5829 5828 5828 5828 5833 5835 5834 5831 5833 5839 5840
5753 5757 5762 5767 5772 5775 5778 5781 5784 5787 5789 5792 5796 5799 5802 5806 5810 5813 5812 5815 5817 5817 5818 5820 5818 5819 5818 5818 5818 5818 5819 5825 5823 5821 5822 5823 5822 5822 5827 5831 5831 5824 5829 5834 5833
5739 5743 5748 5753 5758 5763 5767 5769 5773 5776 5779 5782 5785 5789 5792 5796 5802 5804 5803 5809 5810 5810 5811 5813 5813 5814 5814 5813 5812 5812 5817 5819 5815 5814 5814 5815 5816 5819 5822 5827 5828 5824 5822 5828 5832
5725 5731 5734 5739 5744 5749 5753 5758 5761 5764 5768 5771 5775 5778 5781 5786 5789 5792 5798 5800 5803 5803 5805 5805 5806 5807 5808 5808 5807 5807 5811 5812 5811 5810 5811 5810 5811 5812 5819 5821 5824 5822 5818 5820 5826
5709 5715 5720 5725 5729 5734 5739 5742 5747 5752 5756 5759 5763 5768 5770 5775 5784 5784 5789 5792 5794 5796 5797 5798 5799 5800 5802 5803 5801 5802 5804 5805 5807 5805 5804 5806 5808 5809 5815 5817 5821 5819 5817 5818 5821
5691 5697 5704 5710 5715 5720 5724 5729 5733 5737 5742 5747 5750 5755 5760 5763 5775 5771 5775 5781 5784 5787 5790 5791 5793 5792 5795 5797 5797 5796 5796 5799 5801 5800 5800 5801 5804 5806 5810 5811 5816 5813 5814 5813 5817
5673 5680 5687 5692 5699 5705 5710 5715 5719 5724 5727 5731 5736 5739 5746 5756 5761 5761 5763 5770 5775 5777 5781 5783 5784 5782 5788 5789 5790 5791 5790 5791 5795 5798 5797 5797 5795 5801 5807 5806 5808 5809 5810 5812 5811
5657 5663 5669 5675 5682 5689 5696 5702 5706 5710 5713 5717 5721 5725 5730 5743 5748 5751 5752 5759 5764 5765 5769 5773 5772 5775 5777 5780 5782 5785 5785 5786 5792 5787 5790 5788 5789 5798 5799 5798 5801 5803 5805 5805 5806
5640 5646 5651 5658 5664 5671 5680 5686 5693 5695 5697 5702 5707 5711 5718 5728 5731 5739 5740 5750 5752 5755 5759 5763 5763 5766 5770 5770 5771 5779 5778 5776 5780 5780 5782 5779 5783 5793 5789 5790 5794 5797 5798 5797 5802
5619 5627 5633 5640 5648 5654 5663 5670 5677 5677 5679 5682 5691 5697 5702 5708 5725 5732 5734 5735 5741 5745 5746 5748 5751 5755 5758 5759 5764 5773 5766 5769 5772 5777 5773 5775 5774 5784 5782 5784 5786 5790 5791 5792 5793
5595 5606 5612 5621 5631 5638 5648 5655 5662 5661 5659 5668 5679 5686 5692 5697 5706 5718 5717 5722 5727 5731 5731 5740 5741 5737 5751 5756 5761 5761 5759 5759 5764 5770 5764 5764 5767 5773 5776 5777 5779 5782 5786 5786 5786
5573 5582 5592 5599 5610 5621 5629 5636 5645 5648 5644 5649 5659 5667 5679 5677 5685 5695 5709 5709 5714 5718 5728 5727 5719 5736 5746 5748 5748 5750 5750 5752 5758 5762 5762 5758 5758 5761 5769 5768 5772 5775 5777 5777 5779
5550 5559 5569 5578 5586 5603 5612 5622 5628 5632 5623 5631 5645 5653 5665 5671 5670 5682 5689 5698 5701 5705 5710 5712 5723 5733 5733 5736 5737 5738 5741 5748 5750 5755 5754 5753 5749 5752 5761 5761 5759 5769 5770 5766 5772
5527 5538 5548 5555 5568 5583 5596 5603 5606 5615 5601 5608 5626 5637 5645 5657 5661 5664 5670 5678 5687 5692 5700 5700 5710 5713 5719 5720 5729 5727 5737 5740 5740 5741 5741 5748 5739 5744 5749 5754 5756 5757 5762 5758 5760
5499 5511 5523 5530 5549 5561 5577 5578 5585 5585 5569 5583 5609 5622 5634 5638 5652 5659 5660 5662 5675 5685 5689 5693 5696 5705 5705 5714 5720 5722 5730 5728 5730 5729 5730 5734 5729 5733 5740 5741 5750 5752 5753 5746 5748
5474 5485 5495 5508 5524 5546 5551 5551 5555 5549 5537 5565 5592 5606 5616 5633 5639 5640 5648 5648 5657 5664 5675 5682 5687 5689 5696 5704 5706 5716 5713 5716 5719 5718 5711 5719 5723 5726 5729 5735 5741 5744 5744 5741 5742
5457 5460 5466 5476 5516 5514 5516 5520 5518 5508 5540 5555 5580 5592 5605 5612 5621 5624 5630 5634 5639 5647 5660 5666 5672 5678 5685 5691 5694 5697 5703 5705 5703 5703 5700 5710 5711 5717 5722 5727 5730 5732 5730 5730 5733
5444 5443 5446 5460 5474 5481 5484 5483 5473 5501 5521 5554 5568 5579 5583 5597 5601 5611 5611 5620 5630 5635 5647 5653 5659 5667 5669 5676 5686 5688 5691 5687 5685 5692 5699 5705 5693 5701 5711 5716 5718 5721 5718 5718 5722
5428 5430 5432 5449 5446 5450 5450 5441 5453 5493 5516 5540 5554 5553 5565 5573 5588 5592 5597 5612 5620 5629 5632 5642 5649 5654 5660 5669 5672 5677 5672 5683 5682 5688 5686 5685 5687 5691 5700 5703 5707 5709 5707 5708 5714
5415 5415 5424 5430 5429 5424 5416 5422 5442 5478 5499 5517 5524 5536 5547 5559 5569 5570 5585 5604 5608 5616 5625 5633 5633 5639 5648 5654 5653 5657 5668 5669 5668 5668 5670 5672 5676 5681 5687 5690 5696 5697 5701 5703 5708
5404 5400 5421 5416 5413 5404 5395 5414 5435 5463 5485 5491 5506 5518 5529 5545 5553 5558 5569 5597 5601 5609 5613 5622 5624 5629 5632 5634 5641 5645 5646 5651 5657 5661 5659 5663 5666 5670 5678 5680 5683 5686 5691 5695 5699
5386 5384 5402 5399 5389 5388 5390 5415 5430 5441 5456 5469 5486 5496 5511 5530 5537 5541 5553 5577 5592 5601 5594 5609 5611 5612 5624 5624 5628 5632 5636 5639 5642 5648 5651 5652 5659 5659 5664 5671 5674 5677 5683 5688 5690
5365 5370 5373 5374 5370 5372 5390 5398 5410 5420 5433 5446 5459 5478 5498 5514 5523 5528 5542 5570 5578 5580 5582 5594 5587 5599 5606 5613 5612 5613 5618 5625 5630 5636 5638 5642 5645 5656 5657 5662 5664 5669 5674 5678 5680
5343 5340 5346 5341 5356 5361 5373 5384 5395 5409 5415 5431 5446 5463 5475 5491 5508 5516 5529 5550 5560 5564 5576 5574 5574 5584 5595 5603 5607 5602 5609 5614 5618 5622 5625 5629 5635 5642 5649 5651 5654 5658 5662 5665 5667
5319 5313 5323 5324 5330 5345 5361 5372 5383 5391 5401 5418 5430 5441 5462 5478 5493 5508 5521 5531 5538 5548 5551 5555 5564 5580 5586 5588 5592 5594 5598 5602 5604 5616 5612 5628 5628 5633 5636 5641 5644 5647 5649 5651 5655
5300 5298 5312 5317 5325 5338 5351 5356 5369 5384 5390 5398 5405 5432 5444 5455 5475 5504 5508 5513 5515 5526 5532 5539 5553 5565 5569 5573 5578 5578 5585 5589 5594 5601 5605 5611 5615 5623 5623 5628 5632 5637 5638 5640 5644
5281 5292 5306 5309 5313 5324 5335 5350 5363 5372 5380 5388 5392 5416 5423 5446 5464 5481 5492 5496 5507 5509 5517 5530 5538 5549 5554 5560 5563 5562 5573 5577 5586 5593 5599 5598 5612 5614 5611 5618 5621 5622 5625 5628 5631